Lid_Strength_Index
3 3 3 4 4 4 4 4 4 4 4 4 4 3 3 3 4 6 9 5 4 0 1 5 5 5 6 10 9 10 15 17 15 13 12 9 10 8 7 8 8 8 9 5 2
3 3 3 4 4 4 4 4 4 4 4 4 3 3 3 3 7 8 4 -1 0 1 6 6 6 7 10 12 12 13 17 15 12 11 12 10 11 10 10 10 9 10 10 9 8
3 3 4 4 4 4 4 4 4 4 4 4 4 3 3 4 10 9 -0 -1 1 2 6 5 5 8 12 13 12 14 15 11 11 10 10 10 10 9 10 11 10 11 10 10 8
3 3 4 4 4 4 5 4 4 4 4 4 4 4 3 6 17 8 0 1 2 4 4 5 9 12 13 13 11 13 11 11 11 10 11 11 10 10 10 10 8 8 9 10 8
4 4 4 4 4 4 5 4 4 4 4 4 4 4 6 11 10 3 0 1 3 4 5 7 9 11 12 10 8 11 10 8 8 10 11 10 11 11 11 8 7 7 7 9 11
3 4 4 4 4 5 5 4 4 4 4 4 4 4 7 14 6 2 2 3 3 5 6 8 8 7 9 8 9 8 7 7 8 8 9 9 9 11 9 8 8 8 8 9 10
3 4 4 5 4 4 4 4 4 4 4 3 3 4 8 10 5 2 3 4 4 4 5 4 4 5 7 8 7 6 9 8 7 8 8 8 10 10 8 7 9 9 9 8 8
4 4 4 4 4 4 4 4 4 4 3 2 3 5 9 5 5 5 4 4 4 3 3 3 4 6 7 7 7 9 10 13 10 8 7 9 12 8 7 8 8 9 9 9 8
4 4 4 4 4 4 4 4 4 3 2 3 5 7 8 2 4 3 4 5 3 3 3 2 5 7 7 10 12 12 15 13 11 9 9 10 10 7 7 8 8 9 10 9 9
4 4 4 4 4 4 4 4 4 4 3 2 3 8 6 7 5 3 4 3 4 5 5 7 9 10 11 12 16 14 14 13 13 9 8 9 11 9 7 7 8 9 10 10 10
4 4 5 5 4 5 6 7 10 10 6 8 8 7 6 5 4 5 3 4 5 6 10 9 12 14 11 10 9 10 12 13 11 8 9 10 10 9 8 8 8 8 8 10 10
4 4 5 5 4 5 7 8 7 9 12 7 6 6 5 5 7 5 3 7 7 10 9 11 13 9 8 8 10 10 12 13 10 8 9 10 11 9 8 8 8 7 7 9 10
5 5 5 4 5 6 8 6 5 8 12 9 6 6 6 6 7 6 4 6 8 10 10 12 10 8 9 10 10 11 12 12 12 9 9 10 11 10 8 7 7 7 6 7 9
5 5 5 5 7 7 7 6 7 6 13 9 7 6 6 7 8 4 4 6 8 10 9 11 8 9 10 11 10 13 9 10 11 13 16 11 18 11 9 9 7 7 7 7 8
5 4 4 4 9 8 6 6 7 6 20 9 9 5 7 8 7 5 3 6 9 9 9 11 10 10 11 10 9 11 9 10 10 12 14 13 16 13 10 10 9 8 6 6 6
4 4 4 6 7 6 5 7 6 13 18 11 8 9 8 7 6 5 6 5 6 8 8 9 7 8 9 8 8 7 10 11 12 13 18 14 15 14 12 10 8 7 7 6 6
4 4 5 5 8 6 7 7 13 17 10 12 11 9 9 9 8 7 9 10 13 14 15 11 11 8 8 10 9 10 14 19 20 20 20 12 15 13 9 8 8 8 7 7 6
4 5 5 5 7 6 7 10 17 13 13 10 10 9 10 8 8 8 10 12 10 11 14 16 17 10 8 10 12 13 14 19 23 22 19 13 18 14 9 7 6 6 7 6 6
5 7 5 4 4 7 9 15 16 13 10 11 11 12 11 9 9 10 11 11 10 10 15 15 15 9 8 8 9 13 16 12 17 16 19 17 13 10 8 8 8 7 7 7 6
8 7 6 3 5 7 11 13 12 9 9 9 13 11 13 11 11 11 12 9 10 9 9 12 16 11 10 9 9 11 9 17 16 22 23 18 16 16 12 11 9 8 8 7 8
8 8 5 5 6 10 14 14 11 8 8 10 11 12 11 12 11 13 12 9 9 9 9 11 13 13 11 12 14 13 14 13 14 16 21 21 18 11 11 9 10 9 7 7 7
9 11 5 6 11 12 13 10 8 8 8 9 9 10 11 11 12 12 12 10 7 8 12 11 13 16 15 10 10 11 12 13 18 19 17 18 18 8 9 8 8 8 7 6 6
11 10 5 7 14 14 11 9 8 9 10 10 11 9 9 11 14 11 10 7 7 9 11 11 14 18 16 14 11 12 11 12 13 14 17 19 17 9 8 8 7 8 7 7 6
10 12 10 10 10 12 13 11 10 8 10 10 11 9 11 11 11 12 11 8 7 8 7 8 14 15 18 15 12 15 13 12 13 17 16 16 15 12 10 9 8 8 7 7 6
9 12 10 14 12 11 12 10 11 11 11 11 11 10 11 14 12 12 11 10 9 8 9 10 15 13 13 12 12 13 13 13 15 14 17 14 14 12 10 9 9 7 7 7 7
11 11 10 10 10 11 11 13 11 11 12 12 12 10 10 13 12 13 11 11 12 9 10 11 15 13 15 12 12 13 13 13 13 13 13 12 13 9 8 8 8 8 8 8 7
7 8 10 11 12 12 13 12 11 11 11 10 10 11 12 10 8 7 8 9 9 12 14 14 15 15 17 13 14 17 14 13 12 11 13 15 13 10 10 10 9 8 8 8 7